SCP
-0 0 -0 -0 -0 -0 -0 -0 -0 -0 -0 -0 -0 -0 -0 -0 -0 -0 -0 -0 -0 0 -0 -0 0 0 0 0 0 0 0 0
0 0 0 -0 -0 -0 -0 -0 -0 -0 -0 -0 -0 -0 -0 -0 -0 -0 -0 -0 -0 -0 -0 0 0 0 0 0 0 0 0 0
0 0 0 -0 -0 -0 -0 -0 -0 -0 0 0 0 0 0 0 0 -0 -0 -0 -0 -0 -0 0 0 0 0 0 0 0 0 0
0 0 0 0 0 -0 -0 0 0 0 0 0 0 0 0 0 -0 -0 -0 -0 -0 -0 -0 0 0 0 0 0 0 0 0 0
0 0 0 0 0 0 0 0 0 0 0 0 0 0 0 -0 -0 -0 -0 -0 -0 -0 -0 0 0 0 0 0 0 0 0 0
0 0 0 0 0 0 0 0 0 0 0 0 0 0 0 -0 -0 -0 -0 -0 -0 -0 -0 0 0 0 0 0 0 0 0 0
0 0 0 0 0 0 0 0 0 0 0 0 0 0 0 -0 -0 -0 -0 -0 -0 0 0 0 0 0 0 0 0 0 0 0
0 0 0 0 0 0 0 0 0 0 0 0 0 0 0 0 -0 -0 -0 -0 0 0 0 0 0 0 0 0 0 0 0 0
0 0 0 0 0 0 0 0 0 0 0 0 0 0 0 0 -0 -0 -0 -0 0 0 0 0 0 0 0 0 0 0 0 0
0 0 0 0 0 0 0 0 0 0 0 0 0 0 0 0 0 0 -0 0 0 0 0 0 0 0 0 0 0 0 0 0
0 0 0 0 0 0 0 0 0 0 0 0 0 0 0 0 0 0 0 0 0 0 0 0 0 0 0 0 0 0 0 0
0 0 0 0 0 0 0 0 0 0 0 0 0 0 0 0 0 0 0 0 0 0 0 0 0 0 0 0 0 0 0 0
0 0 0 0 0 0 0 0 0 0 0 0 0 0 0 0 0 0 0 0 0 0 0 0 0 0 0 0 0 0 0 0
0 0 0 0 0 0 0 0 0 0 0 0 0 0 0 0 0 1 1 0 0 0 0 0 0 0 0 0 0 0 0 0
0 0 0 0 1 1 0 0 0 0 0 0 0 0 1 1 1 1 0 0 0 0 0 0 0 0 0 0 0 0 0 0
0 0 0 0 0 0 0 -0 1 1 1 1 1 1 1 1 1 0 0 0 0 0 0 0 0 0 0 0 0 0 0 0
0 0 0 0 0 0 0 0 1 3 2 2 1 0 0 0 0 0 0 0 0 0 0 0 0 0 0 0 0 0 0 0
0 0 0 0 0 0 0 0 0 0 0 0 0 0 0 0 0 0 0 0 0 0 0 0 0 0 -0 0 0 -0 0 0
0 0 0 0 0 0 0 0 0 0 0 0 0 0 0 0 0 0 0 0 0 0 0 0 0 0 0 -0 -0 0 0 0
Wind_Speed_500mb
75 75 72 69 63 57 51 45 46 51 51 47 44 42 37 33 29 25 22 19 16 14 13 11 10 8 7 6 6 5 3 4
73 71 70 67 62 56 51 47 45 49 49 45 42 39 36 31 27 23 19 16 12 10 9 8 7 6 6 6 6 6 7 9
70 70 69 67 62 58 52 47 43 44 47 44 38 35 32 28 25 21 17 14 11 7 6 5 5 5 6 9 10 10 11 15
65 67 68 67 62 58 54 49 44 43 46 44 39 34 30 26 23 19 14 10 7 5 3 3 5 8 11 13 15 16 15 18
64 66 67 68 66 63 59 52 48 45 46 47 42 35 30 25 20 15 10 6 2 2 4 5 7 10 14 17 17 14 21 22
63 63 66 67 66 64 60 55 50 46 46 48 44 37 31 24 19 14 11 7 4 3 3 6 9 9 11 12 12 17 23 27
69 68 68 68 67 66 63 59 54 51 50 49 44 39 33 27 22 17 18 14 11 8 7 6 8 10 11 13 16 19 23 26
72 69 72 69 67 66 63 59 57 53 50 49 45 38 31 26 23 21 19 17 10 5 1 3 6 10 15 19 20 23 27 30
76 70 66 66 64 63 59 56 53 51 47 45 40 37 34 30 26 22 19 13 6 0 3 7 13 17 19 22 27 30 33 39
78 74 69 67 65 61 57 54 51 48 45 40 39 36 32 28 23 21 15 10 5 7 10 10 15 18 25 31 37 41 46 49
79 74 67 66 62 57 54 51 48 45 39 37 35 31 29 27 23 18 12 7 9 12 11 11 20 26 29 35 39 42 42 46
68 64 66 62 57 51 47 44 42 39 38 36 32 29 29 28 24 12 11 14 17 18 13 17 20 27 35 39 46 48 50 47
65 66 64 59 55 47 44 39 41 38 38 38 34 29 25 21 22 17 17 19 25 23 17 22 28 38 44 47 48 46 45 43
63 55 58 56 54 46 46 36 38 39 37 38 35 29 24 18 22 22 23 23 21 21 28 32 34 35 38 39 42 44 43 44
60 50 49 50 49 50 49 43 45 46 43 42 40 38 28 23 26 24 21 18 17 20 25 27 26 25 32 41 46 47 43 41
56 53 55 48 40 34 43 56 63 51 51 43 37 30 29 29 29 30 24 22 23 23 20 13 18 27 37 46 52 52 42 26
53 52 40 38 34 55 22 28 47 54 50 44 37 42 32 32 36 28 24 24 23 12 9 13 22 31 40 46 46 41 31 40
65 60 58 58 48 91 70 68 66 59 47 45 49 44 40 41 39 27 23 16 7 5 10 20 27 34 40 42 42 33 17 20
65 70 61 86 104 98 108 88 105 61 46 43 43 47 44 31 21 18 18 11 3 5 13 22 30 36 40 42 40 34 30 35
Wind_Direction_500mb
175 172 174 177 181 180 174 167 166 167 166 164 160 158 154 151 147 141 136 133 131 126 120 109 97 85 73 64 56 48 13 296
172 172 175 179 182 181 177 172 171 172 170 168 165 160 156 153 149 144 140 138 134 120 105 88 72 56 35 19 10 359 343 333
176 175 179 182 184 183 182 178 175 174 175 174 170 165 160 156 152 148 148 146 136 121 92 66 35 4 351 342 334 331 334 341
180 180 181 184 185 185 185 183 179 179 179 177 175 171 166 163 158 153 153 152 138 119 85 21 351 336 333 327 327 330 331 332
184 183 184 185 186 187 187 187 184 183 181 181 179 177 174 171 164 164 163 157 128 4 339 333 322 326 333 330 330 341 341 341
189 189 188 189 189 189 191 190 188 186 185 185 183 182 180 179 176 178 176 172 125 42 355 339 318 322 343 356 353 338 339 341
194 193 194 192 193 193 194 194 191 189 187 187 186 186 186 187 189 190 181 166 138 100 85 43 24 4 347 335 341 336 336 337
195 196 196 196 197 197 197 195 193 192 189 188 190 190 192 193 190 182 178 164 165 172 186 322 313 324 327 321 320 321 323 324
197 199 197 197 198 199 200 199 197 194 193 191 192 193 197 197 187 182 179 181 166 187 306 318 318 314 312 318 321 318 315 323
198 198 198 198 198 199 197 199 199 198 197 194 195 197 194 188 188 194 197 209 229 290 274 279 291 299 310 314 314 311 309 303
197 199 198 200 201 199 196 196 198 199 197 195 195 198 200 195 195 197 205 230 266 273 270 294 306 306 303 307 305 302 305 306
203 202 204 205 205 205 203 199 200 201 201 199 189 188 190 195 199 205 233 251 264 271 287 298 295 290 296 296 299 303 308 312
205 205 204 205 210 210 213 208 209 198 192 184 181 179 178 184 195 210 232 256 259 257 261 291 287 289 296 303 309 314 319 316
199 201 201 208 213 214 206 212 209 198 201 205 199 193 190 191 206 223 233 245 251 255 270 284 290 298 307 312 316 320 319 310
190 193 196 207 214 215 223 223 217 212 216 213 215 210 207 209 219 223 224 241 258 276 282 293 302 314 322 325 326 325 321 309
182 174 186 196 216 220 230 243 231 226 215 199 192 205 205 216 227 226 238 254 268 285 288 301 326 335 334 337 333 332 334 323
175 174 173 217 219 244 246 296 240 215 195 195 218 211 207 225 234 231 245 258 266 269 292 323 339 347 349 345 345 342 335 336
210 207 233 256 248 246 235 260 285 222 211 203 208 202 208 215 234 234 243 227 216 282 327 347 345 352 355 354 353 3 344 331
227 233 229 224 229 237 231 247 246 258 246 234 214 215 209 213 213 220 186 175 177 327 349 348 347 351 352 353 354 351 345 335
Wind_Speed_850mb
75 75 72 69 63 57 51 45 46 51 51 47 44 42 37 33 29 25 22 19 16 14 13 11 10 8 7 6 6 5 3 4
73 71 70 67 62 56 51 47 45 49 49 45 42 39 36 31 27 23 19 16 12 10 9 8 7 6 6 6 6 6 7 9
70 70 69 67 62 58 52 47 43 44 47 44 38 35 32 28 25 21 17 14 11 7 6 5 5 5 6 9 10 10 11 15
65 67 68 67 62 58 54 49 44 43 46 44 39 34 30 26 23 19 14 10 7 5 3 3 5 8 11 13 15 16 15 18
64 66 67 68 66 63 59 52 48 45 46 47 42 35 30 25 20 15 10 6 2 2 4 5 7 10 14 17 17 14 21 22
63 63 66 67 66 64 60 55 50 46 46 48 44 37 31 24 19 14 11 7 4 3 3 6 9 9 11 12 12 17 23 27
69 68 68 68 67 66 63 59 54 51 50 49 44 39 33 27 22 17 18 14 11 8 7 6 8 10 11 13 16 19 23 26
72 69 72 69 67 66 63 59 57 53 50 49 45 38 31 26 23 21 19 17 10 5 1 3 6 10 15 19 20 23 27 30
76 70 66 66 64 63 59 56 53 51 47 45 40 37 34 30 26 22 19 13 6 0 3 7 13 17 19 22 27 30 33 39
78 74 69 67 65 61 57 54 51 48 45 40 39 36 32 28 23 21 15 10 5 7 10 10 15 18 25 31 37 41 46 49
79 74 67 66 62 57 54 51 48 45 39 37 35 31 29 27 23 18 12 7 9 12 11 11 20 26 29 35 39 42 42 46
68 64 66 62 57 51 47 44 42 39 38 36 32 29 29 28 24 12 11 14 17 18 13 17 20 27 35 39 46 48 50 47
65 66 64 59 55 47 44 39 41 38 38 38 34 29 25 21 22 17 17 19 25 23 17 22 28 38 44 47 48 46 45 43
63 55 58 56 54 46 46 36 38 39 37 38 35 29 24 18 22 22 23 23 21 21 28 32 34 35 38 39 42 44 43 44
60 50 49 50 49 50 49 43 45 46 43 42 40 38 28 23 26 24 21 18 17 20 25 27 26 25 32 41 46 47 43 41
56 53 55 48 40 34 43 56 63 51 51 43 37 30 29 29 29 30 24 22 23 23 20 13 18 27 37 46 52 52 42 26
53 52 40 38 34 55 22 28 47 54 50 44 37 42 32 32 36 28 24 24 23 12 9 13 22 31 40 46 46 41 31 40
65 60 58 58 48 91 70 68 66 59 47 45 49 44 40 41 39 27 23 16 7 5 10 20 27 34 40 42 42 33 17 20
65 70 61 86 104 98 108 88 105 61 46 43 43 47 44 31 21 18 18 11 3 5 13 22 30 36 40 42 40 34 30 35
Wind_Direction_850mb
175 172 174 177 181 180 174 167 166 167 166 164 160 158 154 151 147 141 136 133 131 126 120 109 97 85 73 64 56 48 13 296
172 172 175 179 182 181 177 172 171 172 170 168 165 160 156 153 149 144 140 138 134 120 105 88 72 56 35 19 10 359 343 333
176 175 179 182 184 183 182 178 175 174 175 174 170 165 160 156 152 148 148 146 136 121 92 66 35 4 351 342 334 331 334 341
180 180 181 184 185 185 185 183 179 179 179 177 175 171 166 163 158 153 153 152 138 119 85 21 351 336 333 327 327 330 331 332
184 183 184 185 186 187 187 187 184 183 181 181 179 177 174 171 164 164 163 157 128 4 339 333 322 326 333 330 330 341 341 341
189 189 188 189 189 189 191 190 188 186 185 185 183 182 180 179 176 178 176 172 125 42 355 339 318 322 343 356 353 338 339 341
194 193 194 192 193 193 194 194 191 189 187 187 186 186 186 187 189 190 181 166 138 100 85 43 24 4 347 335 341 336 336 337
195 196 196 196 197 197 197 195 193 192 189 188 190 190 192 193 190 182 178 164 165 172 186 322 313 324 327 321 320 321 323 324
197 199 197 197 198 199 200 199 197 194 193 191 192 193 197 197 187 182 179 181 166 187 306 318 318 314 312 318 321 318 315 323
198 198 198 198 198 199 197 199 199 198 197 194 195 197 194 188 188 194 197 209 229 290 274 279 291 299 310 314 314 311 309 303
197 199 198 200 201 199 196 196 198 199 197 195 195 198 200 195 195 197 205 230 266 273 270 294 306 306 303 307 305 302 305 306
203 202 204 205 205 205 203 199 200 201 201 199 189 188 190 195 199 205 233 251 264 271 287 298 295 290 296 296 299 303 308 312
205 205 204 205 210 210 213 208 209 198 192 184 181 179 178 184 195 210 232 256 259 257 261 291 287 289 296 303 309 314 319 316
199 201 201 208 213 214 206 212 209 198 201 205 199 193 190 191 206 223 233 245 251 255 270 284 290 298 307 312 316 320 319 310
190 193 196 207 214 215 223 223 217 212 216 213 215 210 207 209 219 223 224 241 258 276 282 293 302 314 322 325 326 325 321 309
182 174 186 196 216 220 230 243 231 226 215 199 192 205 205 216 227 226 238 254 268 285 288 301 326 335 334 337 333 332 334 323
175 174 173 217 219 244 246 296 240 215 195 195 218 211 207 225 234 231 245 258 266 269 292 323 339 347 349 345 345 342 335 336
210 207 233 256 248 246 235 260 285 222 211 203 208 202 208 215 234 234 243 227 216 282 327 347 345 352 355 354 353 3 344 331
227 233 229 224 229 237 231 247 246 258 246 234 214 215 209 213 213 220 186 175 177 327 349 348 347 351 352 353 354 351 345 335